Location: Unspecified
(43.4680°N, 87.1740°E)
Time: 20:21:58
(UTC+00:00)

Cosmos 864 Rocket - Pass Details

Date: 17 April 2021
Orbit: 953 x 992 km, 82.9° (Epoch: 11 May)

Event Time Altitude Azimuth Distance (km) Brightness Sun altitude
Rises 20:15:47 0° 349° (N) 3,693 8.1 -28.7°
Reaches altitude 10° 20:18:19 10° 348° (NNW) 2,735 7.3 -28.5°
Enters shadow 20:24:31 70° 267° (W) 1,031 4.4 -27.8°
